Location: Holyhead Bay
(53.3667°N, 4.6667°W)
Time: 12:48:43
(UTC+00:00)

IRIDIUM 33 DEB - Pass Details

Date: 29 September 2021
Orbit: 581 x 600 km, 86.4° (Epoch: 26 October)

Event Time Altitude Azimuth Distance (km) Brightness Sun altitude
Rises 04:14:27 0° 356° (N) 2,856 ? -18.7°
Reaches altitude 10° 04:16:41 10° 360° (N) 1,945 ? -18.4°
Maximum altitude 04:20:57 68° 83° (E) 642 ? -17.8°
Drops below altitude 10° 04:25:09 10° 167° (SSE) 1,913 ? -17.2°
Sets 04:27:20 0° 170° (S) 2,805 ? -16.9°
